Tracking 18852 objects as of 23-Nov-2017
HD Live streaming from Space Station
objects crossing your sky now

COSMOS 1067

Track COSMOS 1067 now!
10-day predictions
COSMOS 1067 is classified as:


NORAD ID: 11168
Int'l Code: 1978-122A
Perigee: 1,164.5 km
Apogee: 1,218.1 km
Inclination: 83.0 °
Period: 109.1 minutes
Semi major axis: 7562 km
RCS: 3.476 m2 (large)
Launch date: December 26, 1978
Source: Commonwealth of Independent States (former USSR) (CIS)
Launch site: PLESETSK MISSILE AND SPACE COMPLEX (PKMTR)
aabbcc
Your satellite tracking list
Your tracking list is empty




NASA's NSSDC Master Catalog

Two Line Element Set (TLE):
1 11168U 78122A   17326.60069247 -.00000006 +00000-0 -46992-4 0  9992
2 11168 082.9694 153.9479 0035439 206.3987 212.3977 13.20147186858289
Source of the keplerian elements: AFSPC